Location: Kumla
(59.1265°N, 15.1401°E)
Time: 16:53:14
(UTC+01:00)

A-11 Canister half - Pass Details

Date: 07 December 2023
Orbit: 1512 x 1687 km, 47.2° (Epoch: 25 February)

Event Time Altitude Azimuth Distance (km) Brightness Sun altitude
Rises 23:45:58 0° 216° (SW) 4,725 - -53.5°
Reaches altitude 10° 23:49:27 10° 206° (SSW) 3,768 - -53.5°
Maximum altitude 23:57:19 30° 151° (SSE) 2,588 - -53.5°
Drops below altitude 10° 00:05:24 10° 95° (E) 3,891 - -53.4°
Exits shadow 00:08:05 - 88° (E) 4,620 11.6 -53.4°
Sets 00:09:04 0° 86° (E) 4,902 11.7 -53.4°
